Content
SEND FEEDBACK

Daily
Averages
Monthly
Summary
United Kingdom

FALMOUTH, ENGLAND


Home > Europe > United Kingdom > England
Elevation: 200 feet     Latitude: 50 08N     Longitude: 005 02W

WEATHER
 
SELECT A DAY
Number of Records: 185,711;   Date Range: 7/1/96 - 12/28/14
 
SHARE

PRINT THIS DATA

[ ← Previous Day ]
WEATHER ALMANAC - NOVEMBER 16, 2013
[ Next Day → ]
[ °C ]   °F
Weather ElementAverageHighLow
Temperature47.8 °F50 °F (10:50 am)42 °F (3:00 am)
Dewpoint42.9 °F46.4 °F (3:50 pm)39.2 °F (2:50 am)
Humidity82 %93 % (1:50 am)69 % (6:00 am)
Barometer30.48 in30.54 in (9:00 am)30.39 in (11:50 pm)
Wind Speed4.2 mph8.1 mph (4:50 pm)
Weather ElementAverage
Visibility7.3 mi
Wind DirectionS (178.7 °)

Weather ElementTotal
Precipitation---
Heating Degree Days19 (Base 65)
Averaged from 31 records on November 16, 2013
WEATHER CONDITIONS BREAKOUT
WIND DIRECTION BREAKOUT
WEATHER BY HOUR - NOVEMBER 16, 2013
[ °C ]   °F
Local TimeTemperatureDewpointHumidityBarometerVisibilityWind DirectionWind SpeedGust SpeedPrecipitationEventsConditions
12:50 AM46.4 °F42.8 °F87 %30.51 in6.2 miEast (100°)4.6 mphOvercast
1:50 AM44.6 °F42.8 °F93 %30.51 in6.2 miENE (60°)4.6 mphMostly Cloudy
2:50 AM42.8 °F39.2 °F87 %30.51 in6.2 miEast (80°)6.9 mphMostly Cloudy
3:00 AM42.0 °F40.0 °F88 %30.53 in11.0 miEast (80°)6.9 mphHaze
3:50 AM42.8 °F39.2 °F87 %30.51 in6.2 miEast (100°)6.9 mphMostly Cloudy
4:50 AM44.6 °F41.0 °F87 %30.51 in6.2 miESE (110°)5.8 mphMostly Cloudy
5:50 AM46.4 °F41.0 °F81 %30.51 in6.2 miEast (100°)3.5 mphOvercast
6:00 AM47.0 °F40.0 °F69 %30.52 in11.0 miEast (100°)3.5 mphHaze
6:50 AM44.6 °F41.0 °F87 %30.51 in6.2 miEast (90°)4.6 mphMostly Cloudy
7:50 AM46.4 °F41.0 °F81 %30.51 in6.2 miESE (110°)1.2 mphHaze
8:50 AM46.4 °F42.8 °F87 %30.51 in6.2 miESE (110°)2.3 mphHaze
9:00 AM47.0 °F43.0 °F81 %30.54 in11.0 miESE (110°)2.3 mphHaze
9:50 AM48.2 °F41.0 °F76 %30.51 in6.2 miSSE (150°)3.5 mphHaze
10:50 AM50.0 °F42.8 °F76 %30.51 in6.2 miCalmHaze
11:50 AM50.0 °F42.8 °F76 %30.51 in6.2 miWest (260°)2.3 mphHaze
12:00 PM50.0 °F43.0 °F69 %30.52 in11.0 miWest (260°)2.3 mphHaze
12:50 PM50.0 °F42.8 °F76 %30.48 in6.2 miWest (270°)3.5 mphHaze
1:50 PM50.0 °F44.6 °F82 %30.48 in6.2 miWest (280°)4.6 mphOvercast
2:50 PM50.0 °F44.6 °F82 %30.45 in6.2 miNW (320°)4.6 mphHaze
3:00 PM50.0 °F45.0 °F78 %30.47 in11.0 miNW (320°)4.6 mphHaze
3:50 PM50.0 °F46.4 °F87 %30.45 in6.2 miNNW (340°)4.6 mphHaze
4:50 PM50.0 °F46.4 °F87 %30.45 in6.2 miNNW (340°)8.1 mphHaze
5:50 PM50.0 °F46.4 °F87 %30.45 in6.2 miNorth (350°)4.6 mphHaze
6:00 PM50.0 °F46.0 °F82 %30.46 in11.0 miNorth (350°)4.6 mphHaze
6:50 PM50.0 °F44.6 °F82 %30.45 in6.2 miNorth (350°)4.6 mphHaze
7:50 PM50.0 °F42.8 °F76 %30.42 in6.2 miNorth (350°)6.9 mphHaze
8:50 PM48.2 °F42.8 °F82 %30.42 in6.2 miNorth (10°)4.6 mphHaze
9:00 PM49.0 °F43.0 °F74 %30.45 in11.0 miNorth (10°)4.6 mphHaze
9:50 PM48.2 °F42.8 °F82 %30.42 in6.2 miENE (60°)3.5 mphOvercast
10:50 PM48.2 °F44.6 °F87 %30.42 in6.2 miNNE (30°)3.5 mphOvercast
11:50 PM48.2 °F44.6 °F87 %30.39 in6.2 miNNW (340°)3.5 mphLight Drizzle
Hourly data recorded from EGDR, located miles away from Falmouth, England







STORIES FROM OUR PARTNERS